Retour au catalogue

STARLINK-30072

ActifCommunicationsVLEO
NORAD 57501·PAYLOAD·🇺🇸 United States

Lancé Aug 7, 2023 depuis Cape Canaveral Space Force Station

Loading…

Prochains Passages (prochaines 24 heures)

TLE

FraisSource: CelesTrak SupGP

Époque: Sep 14, 2026, 22:06 UTC

1 57501C 23113G   26257.92131944  .00023484  00000+0  85050-3 0  2571
2 57501  43.0026  27.6621 0001500 272.3416  42.3748 15.27569815    18

Suivez STARLINK-30072 en temps réel avec AllMySat

Download on the App Store